This is the latest recevied weather packets stored in our database for station/object AB8Y-13. If no packets are shown the sender has not sent any weather packets the latest 10 day(s).
| Time | Temp. | Humidity | Pressure | Rain* | Wind** | Luminosity | Snow |
|---|---|---|---|---|---|---|---|
| 1777804891 | 3.33° C | 63% | 1012.8 hPa | 0 mm | - | 13 W/m² | - |
| 1777804589 | 2.78° C | 65% | 1012.6 hPa | 0 mm | - | 9 W/m² | - |
| 1777804286 | 3.33° C | 63% | 1012.6 hPa | 0 mm | - | 6 W/m² | - |
| 1777803983 | 2.78° C | 63% | 1012.6 hPa | 0 mm | - | 3 W/m² | - |
| 1777803679 | 2.78° C | 65% | 1012.7 hPa | 0 mm | - | 2 W/m² | - |
| 1777803375 | 1.67° C | 69% | 1012.7 hPa | 0 mm | - | 1 W/m² | - |
| 1777803074 | 1.67° C | 71% | 1012.6 hPa | 0 mm | - | 0 W/m² | - |
| 1777802771 | 1.11° C | 74% | 1012.8 hPa | 0 mm | - | 0 W/m² | - |
| 1777802469 | 0.56° C | 71% | 1012.9 hPa | 0 mm | - | 0 W/m² | - |
| 1777802166 | 0.56° C | 74% | 1012.7 hPa | 0 mm | - | 0 W/m² | - |
| 1777801864 | 0.56° C | 76% | 1012.9 hPa | 0 mm | - | 0 W/m² | - |
| 1777801560 | 0.56° C | 77% | 1013 hPa | 0 mm | - | 0 W/m² | - |
| 1777801257 | 0° C | 75% | 1012.8 hPa | 0 mm | - | 0 W/m² | - |
| 1777800954 | 0° C | 79% | 1013.2 hPa | 0 mm | - | 0 W/m² | - |
| 1777800651 | 0° C | 82% | 1013.1 hPa | 0 mm | - | 0 W/m² | - |
| 1777800346 | 0° C | 82% | 1013.3 hPa | 0 mm | - | 0 W/m² | - |
| 1777800043 | 0° C | 84% | 1013.3 hPa | 0 mm | - | 0 W/m² | - |
| 1777799738 | 0° C | 85% | 1013.5 hPa | 0 mm | - | 0 W/m² | - |
| 1777799436 | 0° C | 86% | 1013.4 hPa | 0 mm | - | 0 W/m² | - |
| 1777799132 | 0° C | 86% | 1013.4 hPa | 0 mm | - | 0 W/m² | - |
| 1777798827 | 0° C | 85% | 1013.6 hPa | 0 mm | - | 0 W/m² | - |
| 1777798523 | -0.56° C | 86% | 1013.5 hPa | 0 mm | - | 0 W/m² | - |
| 1777798221 | 0° C | 85% | 1013.6 hPa | 0 mm | - | 0 W/m² | - |
| 1777797918 | 0° C | 84% | 1013.9 hPa | 0 mm | - | 0 W/m² | - |
| 1777797616 | 0° C | 83% | 1013.9 hPa | 0 mm | - | 0 W/m² | - |
* Rain latest hour (hover to see other rain measurements)
** Current wind speed in m/s (hover to see current wind gust speed)